Regional Weather Roundup
Issued by NWS

Home | Current Version | Previous Version | Graphics & Text | Print | Product List | Glossary On
Versions: 1 2 3 4 5 6 7 8 9 10 11 12 13 14 15 16 17 18 19 20 21 22 23 24 25 26 27 28 29 30 31 32 33 34 35 36 37 38 39 40 41 42 43 44 45 46 47 48 49 50
000
ASUS43 KDMX 062203
RWRIA

WEATHER ROUNDUP FOR IOWA
NATIONAL WEATHER SERVICE DES MOINES IA
500 PM CDT FRI MAY 06 2016

NOTE: "FAIR" INDICATES FEW OR NO CLOUDS BELOW 12,000 FEET WITH NO
SIGNIFICANT WEATHER AND/OR OBSTRUCTIONS TO VISIBILITY.

* - THESE STATIONS ARE NOT NWS STATIONS...THUS NOT UNDER NWS
QUALITY CONTROL.  THEY ALSO DO NOT REPORT WEATHER SUCH
AS PRECIPITATION OR FOG.

IAZ001>003-012>014-020>022-031>034-043>046-062300-
   NORTHWEST IOWA

CITY           SKY/WX    TMP DP  RH WIND       PRES   REMARKS
CARROLL *      SUNNY     88  39  18 W22G29    29.86F HX  84
CHEROKEE *     SUNNY     85  47  26 SW15G26   29.82F HX  83
DENISON *      SUNNY     86  43  22 SW20G26   29.84F HX  83
LE MARS *      SUNNY     88  45  22 SW18G32   29.81F HX  84
ORANGE CITY *  SUNNY     88  48  25 SW18G28   29.80F HX  85
SHELDON *      SUNNY     90  45  20 SW23G31   29.78F HX  86
SIOUX CITY     SUNNY     86  52  30 SW17G24   29.82F HX  84
SPENCER        SUNNY     89  44  20 SW23      29.80F HX  86
STORM LAKE *   SUNNY     86  43  22 SW23G33   29.84F HX  83
$$

IAZ055>058-069>071-079>083-090>094-062300-
   SOUTHWEST IOWA

CITY           SKY/WX    TMP DP  RH WIND       PRES   REMARKS
ATLANTIC *     SUNNY     84  43  23 SW21G29   29.88F HX  82
AUDUBON *        N/A     86  25  10 SW16G22   29.89F HX  82
CLARINDA *       N/A     84  46  26 MISG      29.92F HX  82
COUNCIL BLFS * SUNNY     84  43  23 SW16G22   29.89F HX  82
CRESTON *      SUNNY     82  46  28 SW15G22   29.92F HX  81
HARLAN  *      SUNNY     86  39  19 SW17G29   29.90F HX  83
LAMONI         SUNNY     80  50  34 SW16      29.93F HX  80
RED OAK *      SUNNY     84  45  24 SW18G25   29.90F HX  82
SHENANDOAH *   SUNNY     86  39  19 SW18      29.90F HX  83
$$

IAZ047>049-059>061-072>074-084-062300-
   CENTRAL IOWA

CITY           SKY/WX    TMP DP  RH WIND       PRES   REMARKS
AMES           SUNNY     86  39  19 SW17G32   29.85F HX  83
ANKENY *       SUNNY     84  45  24 SW16G24   29.87F HX  82
BOONE *        SUNNY     86  37  17 SW17G31   29.85F HX  83
CHARITON *     SUNNY     82  48  30 SW15G21   29.92F HX  81
DES MOINES     MOSUNNY   85  42  22 SW20G28   29.88F HX  82
GRINNELL*      SUNNY     84  45  24 SW17G24   29.88F HX  82
KNOXVILLE *    SUNNY     84  48  28 SW15      29.88F HX  82
MARSHALLTOWN   SUNNY     85  42  22 W18G29    29.84F HX  82
NEWTON *       SUNNY     86  45  23 SW18G25   29.87F HX  83
PELLA *        SUNNY     84  46  26 W9        29.89F HX  82
PERRY *          N/A     86  34  15 SW18G28   29.87F HX  83
$$

IAZ004>006-015-016-023>025-035-036-062300-
   NORTH CENTRAL IOWA

CITY           SKY/WX    TMP DP  RH WIND       PRES   REMARKS
ALGONA *       SUNNY     88  45  22 SW23G32   29.82F HX  84
CLARION *      SUNNY     88  41  19 W23G36    29.83F HX  84
ESTHERVILLE    SUNNY     88  47  24 W29       29.79F HX  85
FORT DODGE *   SUNNY     84  46  26 SW18      29.84F HX  82
MASON CITY     SUNNY     86  44  23 SW17G28   29.82F HX  83
FOREST CITY *    N/A     84  41  21 SW16G25   29.80F HX  81
WEBSTER CITY * SUNNY     88  36  15 W25G33    29.82F HX  84
IOWA FALLS *     N/A     88  34  14 SW21G35   29.85F HX  84
$$

IAZ007>011-017>019-026>030-037>042-050>054-066-062300-
   NORTHEAST IOWA

CITY           SKY/WX    TMP DP  RH WIND       PRES   REMARKS
CEDAR RAPIDS   SUNNY     85  47  26 SW20G30   29.84F HX  82
CHARLES CITY * SUNNY     90  30  12 W22G28    29.81F HX  85
CLINTON *      SUNNY     86  48  26 W22       29.83F HX  83
DECORAH *      MOSUNNY   86  32  14 W9G23     29.78F HX  83
DUBUQUE        SUNNY     84  43  23 W18G29    29.83F HX  81
MONTICELLO *   SUNNY     86  39  19 W17G24    29.82F HX  83
OELWEIN *      MOSUNNY   88  37  16 W22G31    29.82F HX  84
WATERLOO       SUNNY     86  38  18 SW21      29.81F HX  83
$$

IAZ064-065-067-068-078-062300-
   EAST CENTRAL IOWA

CITY           SKY/WX    TMP DP  RH WIND       PRES   REMARKS
DAVENPORT      SUNNY     87  40  19 W23G29    29.85F HX  84
IOWA CITY      SUNNY     85  48  27 W18       29.86F HX  82
MT. PLEASANT * SUNNY     86  46  25 W15G22    29.89F HX  83
MUSCATINE *    SUNNY     86  46  25 W18       29.86F HX  83
QUAD CITIES    SUNNY     85  45  24 W20       29.84F HX  82
$$

IAZ062-063-075>077-085>089-095>099-062300-
   SOUTHEAST IOWA

CITY           SKY/WX    TMP DP  RH WIND       PRES   REMARKS
BURLINGTON     SUNNY     83  48  29 W13G20    29.89F HX  81
FAIRFIELD *    SUNNY     84  48  28 W13       29.89F HX  82
FORT MADISON * SUNNY     82  48  30 W8        29.91F HX  81
KEOKUK *       SUNNY     82  50  32 W15       29.90F HX  81
OSKALOOSA *      N/A     85  46  25 SW17G24   29.89F HX  82
OTTUMWA        SUNNY     83  49  30 W16       29.89F HX  81
WASHINGTON *   SUNNY     84  48  28 W17       29.89F HX  82
$$

ABBREVIATIONS USED IN REMARKS
   TC - TEMPERATURES IN CELSIUS
  WCI - WIND CHILL INDEX
   HX - HEAT INDEX
  VSB - VISIBILITY
$$





USA.gov is the U.S. government's official web portal to all federal, state and local government web resources and services.